#timestamp,LO_Frequency,Hit,StdDev 
1633532415.6,286046999.8,N
1633532435.5,286046999.9,N
1633532455.3,286047000.2,N
1633532475.1,286047002.4,N
1633532495.9,286047002.2,N
1633532515.7,286047001.7,N
1633532535.5,286047000.0,N
1633532555.4,286047000.4,N
1633532575.2,286046999.9,N
1633532595.1,286047000.0,N
1633532596.0,286047000.0,N
1633532615.8,286047000.5,N
1633532635.6,286046999.9,N
1633532655.5,286046999.7,N
1633532675.3,286046999.7,N
1633532695.1,286047000.1,N
1633532715.9,286047001.8,N
1633532735.7,286047000.9,N
1633532755.6,286046999.1,N
1633532775.4,286046998.4,N
1633532795.2,286046998.1,N
1633532815.1,286047000.9,N
1633532816.0,286047000.9,N
1633532835.8,286047000.4,N
1633532855.7,286046999.7,N
1633532875.5,286047000.3,N
1633532895.3,286046999.9,N
1633532915.2,286047000.0,N
1633532935.9,286047000.4,N
1633532955.7,286046998.5,N
1633532975.6,286046998.3,N
1633532995.4,286046998.7,N
1633533015.3,286046998.8,N
1633533035.1,286047000.9,N
1633533036.0,286047000.9,N
1633533055.8,286047002.8,N
1633533075.7,286047000.2,N
1633533095.5,286047002.6,N
1633533115.3,286046999.7,N
1633533135.2,286047000.2,N
1633533155.0,286046999.7,N
1633533155.9,286046999.7,N
1633533175.8,286046998.4,N
1633533195.6,286046996.6,N
1633533215.4,286046996.9,N
1633533235.3,286046996.9,N
1633533255.1,286046998.3,N
1633533275.8,286046998.9,N
1633533295.7,286047001.1,N
1633533315.5,286047000.5,N
1633533335.4,286047001.1,N
1633533355.2,286047000.5,N
1633533375.0,286047002.3,N
1633533375.9,286047002.3,N
1633533395.8,286047002.1,N
1633533415.6,286047002.0,N
1633533435.5,286047001.4,N
1633533455.3,286047003.8,N
1633533475.1,286047003.6,N
1633533495.9,286047001.9,N
1633533515.7,286047000.2,N
1633533535.5,286046999.7,N
1633533555.4,286047002.6,N
1633533575.2,286047001.5,N
1633533595.1,286047002.6,N
1633533596.0,286047002.6,N
1633533615.8,286047000.2,N
1633533635.6,286047000.6,N
1633533655.5,286047000.5,N
1633533675.3,286047002.3,N
1633533695.1,286047000.1,N
1633533715.9,286047002.4,N
1633533735.7,286046999.9,N
1633533755.6,286047002.3,N
1633533775.4,286046999.9,N
1633533795.2,286047002.7,N
1633533815.1,286046999.7,N
1633533816.0,286046999.7,N
1633533835.8,286047002.1,N
1633533855.6,286047001.3,N
1633533875.5,286047000.1,N
1633533895.3,286047002.8,N
1633533915.2,286047002.5,N
1633533935.9,286046999.9,N
1633533955.7,286046998.1,N
1633533975.6,286047000.3,N
1633533995.4,286046999.8,N
1633534015.2,286047000.3,N
1633534035.1,286047000.0,N
1633534036.0,286047000.0,N
1633534055.8,286047000.2,N
1633534075.7,286047002.1,N
1633534095.5,286047002.7,N
1633534115.3,286047002.0,N
1633534135.2,286047002.2,N
1633534155.0,286047004.0,Y
1633534155.9,286047004.0,P
1633534175.8,286047004.4,N
1633534195.6,286047004.2,N
1633534215.4,286047004.2,N
1633534235.3,286047001.3,N
1633534255.1,286047004.1,N
1633534275.8,286047004.0,N
1633534295.7,286047002.1,N
1633534315.5,286047002.5,N
1633534335.4,286047000.7,N
1633534355.2,286047000.0,N
1633534375.0,286047002.6,N
1633534375.9,286047002.6,N
1633534395.8,286047002.8,N
1633534415.6,286046999.9,N
1633534435.4,286047002.4,N
1633534455.3,286047002.0,N
1633534475.1,286047000.0,N
1633534495.9,286047000.6,N
1633534515.7,286047000.1,N
1633534535.5,286047002.7,N
1633534555.4,286047002.4,N
1633534575.2,286047000.0,N
1633534595.0,286046998.7,N
1633534626.0,286046999.0,E
1633534635.9,286046998.4,N
1633534655.7,286047001.0,P
1633534675.6,286046998.6,N
1633534695.4,286046999.1,N
1633534715.3,286046998.5,N
1633534735.1,286046996.7,Y
1633534736.0,286046996.7,P
1633534755.8,286046999.4,N
1633534775.7,286046996.8,N
1633534795.5,286046996.5,N
1633534815.3,286046999.5,N
1633534835.2,286046998.3,N
1633534855.0,286046998.7,N
1633534855.9,286046998.7,N
1633534875.8,286047001.2,N
1633534895.6,286046998.6,N
1633534915.4,286047001.1,N
1633534935.3,286047001.0,N
1633534955.1,286047000.2,N
1633534975.8,286047002.8,N
1633534995.7,286047000.3,N
1633535015.5,286047000.9,N
1633535035.4,286047002.7,N
1633535055.2,286046999.9,N
1633535075.0,286046999.7,N
1633535075.9,286046999.7,N
1633535095.8,286047001.5,N
1633535115.6,286047001.6,N
1633535135.4,286047002.2,N
1633535155.3,286047004.3,N
1633535175.1,286047003.8,N
1633535195.9,286047004.4,N
1633535215.7,286047004.0,N
1633535235.5,286047004.0,N
1633535255.4,286047004.1,N
1633535275.2,286047004.2,N
1633535295.0,286047002.7,N
1633535296.0,286047002.7,N
1633535315.8,286047002.8,N
1633535335.6,286047002.1,N
1633535355.5,286047002.3,N
1633535375.3,286047004.4,N
1633535395.1,286047003.1,N
1633535415.9,286047003.3,N
1633535435.7,286047003.0,N
1633535455.6,286047005.0,Y
1633535475.4,286047004.3,P
1633535495.2,286047004.2,P
1633535515.1,286047001.7,N
1633535516.0,286047001.7,N
1633535535.8,286047001.6,N
1633535555.6,286047003.9,Y
1633535575.5,286047000.9,P
1633535595.3,286047000.9,N
1633535615.2,286046998.4,N
1633535635.9,286046998.8,N
1633535655.7,286046998.9,N
1633535675.6,286046998.6,N
1633535695.4,286046998.3,N
1633535715.2,286046999.5,N
1633535735.1,286046999.0,N
1633535736.0,286046999.0,N
1633535755.8,286047001.2,N
1633535775.7,286047000.4,N
1633535795.5,286046999.9,N
1633535815.3,286047000.0,N
1633535835.2,286047001.0,N
1633535855.0,286047000.0,N
1633535855.9,286047000.0,N
1633535875.8,286047000.6,N
1633535895.6,286047000.0,N
1633535915.4,286047000.1,N
1633535935.3,286047002.7,N
1633535955.1,286047002.8,N
1633535975.8,286047000.1,N
1633535995.7,286047002.8,N
